No particular awareness of the weather is required.    There are no Weather-warnings


Meteo18 Weather Cam more information Meteo18 Weather Cam


Thunder radar more information blitzortung!


Rain radar more information rain snow radar


Visit our other weather sites:

Template documentation
and downloads

And another site



Weather Underground History page Text

Daily Summary for February 10, 2018 Units:  Metric    English   Both
« Previous Day
Next Day »
Daily Weekly Monthly Yearly Custom
  High: Low: Average:
Temperature: -17.8 °C -19.7 °C -17.6 °C
Dew Point: -17.8 °C -20.1 °C -18.4 °C
Humidity: Humidity % 78 % 89 %
Wind Speed: 0 km/h 0 km/h 6.6 km/h
Wind Gust: 0 km/h - -
Wind:- - WSW
Pressure: 0 hPa 34405.1 hPa -
Precipitation: 154.94 mm    
Historical Graphs
 
 
Tabular Data for February 10, 2018
Time Temperature Dew Point Pressure Wind Wind Speed Wind Gust Humidity Rainfall Rate (Hourly)
-17.8 °C -17.8 °C 0 hPa Calm     Humidity % 0 mm
00:01 -17.5 °C -18 °C 34476.3 hPa WNW 12.7 km/h 20.8 km/h 94 % 0 mm
00:07 -17.6 °C -18.1 °C 34476.3 hPa NNW 5.1 km/h 15.6 km/h 94 % 0 mm
00:13 -17.6 °C -18.1 °C 34476.3 hPa WSW 2.3 km/h 7.7 km/h 94 % 0 mm
00:19 -17.5 °C -18 °C 34476.3 hPa WNW 5.1 km/h 12.9 km/h 94 % 0 mm
00:25 -17.4 °C -17.9 °C 34476.3 hPa West 5.1 km/h 12.9 km/h 94 % 0 mm
00:31 -17.4 °C -17.9 °C 34476.3 hPa WNW 12.7 km/h 18.2 km/h 94 % 7.62 mm
00:37 -17.4 °C -17.9 °C 34476.3 hPa WNW 15.6 km/h 15.6 km/h 93 % 7.62 mm
00:43 -17.4 °C -17.9 °C 34486.4 hPa NW 7.6 km/h 23.3 km/h 93 % 7.62 mm
00:49 -17.4 °C -17.9 °C 34486.4 hPa NNW 10.3 km/h 20.8 km/h 93 % 7.62 mm
00:55 -17.4 °C -17.9 °C 34486.4 hPa NW 12.7 km/h 18.2 km/h 93 % 7.62 mm
01:01 -17.4 °C -17.9 °C 34486.4 hPa NW 2.3 km/h 25.9 km/h 93 % 7.62 mm
01:07 -17.3 °C -18 °C 34486.4 hPa West 2.3 km/h 12.9 km/h 92 % 7.62 mm
01:13 -17.4 °C -18.1 °C 34486.4 hPa WNW 5.1 km/h 15.6 km/h 92 % 7.62 mm
01:19 -17.3 °C -18 °C 34496.6 hPa NW 2.3 km/h 18.2 km/h 92 % 7.62 mm
01:25 -17.3 °C -18 °C 34496.6 hPa Calm   12.9 km/h 92 % 7.62 mm
01:31 -17.3 °C -18 °C 34496.6 hPa WNW 10.3 km/h 15.6 km/h 92 % 0 mm
01:37 -17.3 °C -18 °C 34496.6 hPa NW 2.3 km/h 10.3 km/h 92 % 0 mm
01:43 -17.3 °C -17.9 °C 34496.6 hPa WNW 5.1 km/h 20.8 km/h 92 % 0 mm
01:49 -17.3 °C -17.9 °C 34496.6 hPa WNW 23 km/h 23.3 km/h 92 % 0 mm
01:55 -17.3 °C -18 °C 34496.6 hPa NW 10.3 km/h 20.8 km/h 91 % 0 mm
02:01 -17.3 °C -18 °C 34496.6 hPa West 7.6 km/h 28.5 km/h 92 % 0 mm
02:07 -17.3 °C -18 °C 34496.6 hPa NW 28.5 km/h 28.5 km/h 92 % 0 mm
02:13 -17.3 °C -18 °C 34496.6 hPa WSW 5.1 km/h 18.2 km/h 92 % 0 mm
02:19 -17.3 °C -18 °C 34496.6 hPa WNW 12.7 km/h 25.9 km/h 92 % 0 mm
02:25 -17.3 °C -18.1 °C 34496.6 hPa WNW 17.9 km/h 23.3 km/h 91 % 0 mm
02:31 -17.3 °C -18.1 °C 34496.6 hPa WNW 15.6 km/h 25.9 km/h 91 % 0 mm
02:37 -17.4 °C -18.1 °C 34496.6 hPa NNW 10.3 km/h 23.3 km/h 91 % 0 mm
02:43 -17.4 °C -18.2 °C 34510.1 hPa NW 5.1 km/h 20.8 km/h 91 % 0 mm
02:49 -17.6 °C -18.2 °C 34510.1 hPa WNW 17.9 km/h 20.8 km/h 92 % 0 mm
02:55 -17.6 °C -18.2 °C 34510.1 hPa NW 10.3 km/h 23.3 km/h 92 % 0 mm
03:01 -17.7 °C -18.3 °C 34510.1 hPa WNW 10.3 km/h 23.3 km/h 92 % 0 mm
03:07 -17.7 °C -18.3 °C 34510.1 hPa WNW 5.1 km/h 23.3 km/h 92 % 0 mm
03:13 -17.7 °C -18.3 °C 34510.1 hPa WNW 5.1 km/h 23.3 km/h 92 % 0 mm
03:19 -17.7 °C -18.3 °C 34510.1 hPa WNW 7.6 km/h 18.2 km/h 92 % 0 mm
03:25 -17.7 °C -18.3 °C 34510.1 hPa WNW 17.9 km/h 23.3 km/h 92 % 0 mm
03:31 -17.7 °C -18.3 °C 34510.1 hPa WNW 7.6 km/h 18.2 km/h 92 % 0 mm
03:37 -17.7 °C -18.3 °C 34510.1 hPa NW 7.6 km/h 18.2 km/h 92 % 0 mm
03:43 -17.7 °C -18.3 °C 34510.1 hPa WNW 7.6 km/h 15.6 km/h 92 % 0 mm
03:50 -17.8 °C -18.4 °C 34510.1 hPa Calm   12.9 km/h 92 % 0 mm
03:56 -17.8 °C -18.4 °C 34510.1 hPa WNW 7.6 km/h 12.9 km/h 92 % 0 mm
04:02 -17.8 °C -18.4 °C 34510.1 hPa NW 7.6 km/h 15.6 km/h 93 % 0 mm
04:08 -17.9 °C -18.5 °C 34510.1 hPa NW 7.6 km/h 15.6 km/h 92 % 0 mm
04:14 -17.9 °C -18.5 °C 34520.3 hPa WNW 7.6 km/h 12.9 km/h 92 % 0 mm
04:20 -17.9 °C -18.5 °C 34510.1 hPa WNW 2.3 km/h 7.7 km/h 92 % 0 mm
04:26 -17.9 °C -18.5 °C 34510.1 hPa WNW 5.1 km/h 10.3 km/h 93 % 0 mm
04:32 -17.9 °C -18.6 °C 34510.1 hPa Calm   5.1 km/h 92 % 0 mm
04:38 -17.9 °C -18.6 °C 34520.3 hPa North 17.9 km/h 18.2 km/h 92 % 0 mm
04:44 -18 °C -18.6 °C 34520.3 hPa NW 15.6 km/h 18.2 km/h 92 % 0 mm
04:50 -18 °C -18.6 °C 34520.3 hPa West 5.1 km/h 12.9 km/h 92 % 0 mm
04:56 -18 °C -18.6 °C 34520.3 hPa Calm   15.6 km/h 92 % 0 mm
05:02 -18.1 °C -18.7 °C 34520.3 hPa WNW 5.1 km/h 18.2 km/h 92 % 0 mm
05:08 -18.1 °C -18.7 °C 34520.3 hPa WNW 5.1 km/h 10.3 km/h 92 % 0 mm
05:14 -18.2 °C -18.9 °C 34520.3 hPa West 2.3 km/h 5.1 km/h 91 % 0 mm
05:20 -18.1 °C -18.7 °C 34520.3 hPa West 5.1 km/h 5.1 km/h 92 % 0 mm
05:26 -18.2 °C -18.8 °C 34520.3 hPa WNW 2.3 km/h 12.9 km/h 92 % 0 mm
05:32 -18.3 °C -19 °C 34520.3 hPa WNW 2.3 km/h 10.3 km/h 91 % 0 mm
05:38 -18.3 °C -18.9 °C 34520.3 hPa WNW 5.1 km/h 12.9 km/h 92 % 0 mm
05:44 -18.3 °C -18.9 °C 34533.8 hPa West 5.1 km/h 12.9 km/h 92 % 0 mm
05:50 -18.3 °C -19 °C 34533.8 hPa West 2.3 km/h 7.7 km/h 91 % 0 mm
05:56 -18.3 °C -19.1 °C 34533.8 hPa WNW 2.3 km/h 5.1 km/h 91 % 0 mm
06:02 -18.4 °C -19.2 °C 34533.8 hPa WNW 5.1 km/h 7.7 km/h 91 % 0 mm
06:08 -18.5 °C -19.1 °C 34533.8 hPa WNW 5.1 km/h 15.6 km/h 92 % 0 mm
06:14 -18.4 °C -19.1 °C 34533.8 hPa WNW 5.1 km/h 5.1 km/h 92 % 0 mm
06:20 -18.4 °C -19.1 °C 34533.8 hPa NW 5.1 km/h 5.1 km/h 92 % 0 mm
06:26 -18.5 °C -19.1 °C 34533.8 hPa WNW 5.1 km/h 7.7 km/h 92 % 0 mm
06:32 -18.5 °C -19.1 °C 34533.8 hPa NW 2.3 km/h 5.1 km/h 92 % 0 mm
06:38 -18.5 °C -19.1 °C 34544 hPa NNW 2.3 km/h 7.7 km/h 92 % 0 mm
06:44 -18.6 °C -19.2 °C 34544 hPa Calm   5.1 km/h 92 % 0 mm
06:50 -18.7 °C -19.4 °C 34544 hPa West 2.3 km/h 7.7 km/h 91 % 0 mm
06:56 -18.7 °C -19.3 °C 34544 hPa Calm   5.1 km/h 92 % 0 mm
07:02 -18.8 °C -19.6 °C 34554.1 hPa Calm     91 % 0 mm
07:08 -19.1 °C -19.8 °C 34554.1 hPa SE 2.3 km/h 2.6 km/h 91 % 0 mm
07:14 -19.2 °C -19.8 °C 34554.1 hPa Calm   2.6 km/h 92 % 0 mm
07:20 -19.3 °C -19.9 °C 34554.1 hPa Calm   2.6 km/h 93 % 0 mm
07:26 -19.4 °C -20 °C 34554.1 hPa Calm     93 % 0 mm
07:32 -19.5 °C -19.9 °C 34554.1 hPa Calm     94 % 0 mm
07:38 -19.4 °C -19.9 °C 34554.1 hPa Calm     94 % 0 mm
07:44 -19.3 °C -19.7 °C 34554.1 hPa Calm     95 % 0 mm
07:50 -19.4 °C -19.8 °C 34567.7 hPa Calm     95 % 0 mm
07:56 -19.5 °C -19.9 °C 34567.7 hPa Calm     94 % 0 mm
08:02 -19.5 °C -19.9 °C 34567.7 hPa Calm     95 % 0 mm
08:08 -19.6 °C -20 °C 34567.7 hPa Calm     95 % 0 mm
08:14 -19.7 °C -20.1 °C 34577.8 hPa Calm   2.6 km/h 95 % 0 mm
08:20 -19.6 °C -20 °C 34577.8 hPa Calm   2.6 km/h 95 % 0 mm
08:26 -19.6 °C -20 °C 34577.8 hPa Calm     95 % 0 mm
08:32 -19.7 °C -20.1 °C 34577.8 hPa Calm     95 % 0 mm
08:38 -19.6 °C -20 °C 34591.4 hPa Calm     95 % 0 mm
08:44 -19.6 °C -19.9 °C 34577.8 hPa Calm     95 % 0 mm
08:50 -19.5 °C -19.9 °C 34577.8 hPa Calm     95 % 0 mm
08:56 -19.5 °C -19.9 °C 34591.4 hPa Calm     95 % 0 mm
09:02 -19.3 °C -19.7 °C 34591.4 hPa Calm     95 % 0 mm
09:08 -19.4 °C -19.8 °C 34591.4 hPa Calm     94 % 0 mm
09:14 -19.2 °C -19.6 °C 34591.4 hPa Calm     95 % 0 mm
09:20 -19 °C -19.4 °C 34591.4 hPa Calm     94 % 0 mm
09:26 -19 °C -19.6 °C 34591.4 hPa Calm     92 % 0 mm
09:32 -18.9 °C -19.5 °C 34601.5 hPa Calm   2.6 km/h 93 % 0 mm
09:38 -19 °C -19.8 °C 34601.5 hPa SE 2.3 km/h 2.6 km/h 90 % 0 mm
09:46 -19.2 °C -19.9 °C 34601.5 hPa Calm   2.6 km/h 90 % 0 mm
09:52 -19.2 °C -19.9 °C 34601.5 hPa Calm   2.6 km/h 90 % 0 mm
09:58 -19 °C -19.7 °C 34611.7 hPa Calm     91 % 0 mm
10:04 -18.6 °C -19.3 °C 34611.7 hPa South 2.3 km/h 2.6 km/h 91 % 0 mm
10:10 -18.5 °C -19.4 °C 34601.5 hPa Calm     89 % 0 mm
10:17 -18.3 °C -19.2 °C 34601.5 hPa Calm   2.6 km/h 88 % 0 mm
10:23 -18.1 °C -19.1 °C 34601.5 hPa Calm     87 % 0 mm
10:29 -17.7 °C -18.7 °C 34601.5 hPa Calm     87 % 0 mm
10:35 -17.8 °C -19.2 °C 34601.5 hPa Calm   2.6 km/h 83 % 0 mm
10:41 -17.8 °C -19 °C 34601.5 hPa Calm   2.6 km/h 86 % 0 mm
10:47 -17.7 °C -18.9 °C 34601.5 hPa Calm     85 % 0 mm
10:53 -17.6 °C -18.9 °C 34601.5 hPa Calm     84 % 0 mm
10:59 -17.7 °C -19.1 °C 34601.5 hPa SE 2.3 km/h 2.6 km/h 83 % 0 mm
11:05 -17.7 °C -18.9 °C 34601.5 hPa ESE 2.3 km/h 2.6 km/h 85 % 0 mm
11:11 -18 °C -19.3 °C 34601.5 hPa SE 2.3 km/h 5.1 km/h 84 % 0 mm
11:17 -17.8 °C -18.8 °C 34601.5 hPa Calm   5.1 km/h 88 % 0 mm
11:23 -17.7 °C -18.7 °C 34601.5 hPa Calm   2.6 km/h 87 % 0 mm
11:29 -17.5 °C -18.7 °C 34601.5 hPa SW 5.1 km/h 5.1 km/h 86 % 7.62 mm
11:35 -17.6 °C -18.6 °C 34601.5 hPa Calm   5.1 km/h 87 % 7.62 mm
11:41 -17.4 °C -18.5 °C 34601.5 hPa Calm   2.6 km/h 87 % 7.62 mm
11:47 -17.3 °C -18.4 °C 34601.5 hPa Calm   2.6 km/h 87 % 7.62 mm
11:53 -17.2 °C -18.2 °C 34601.5 hPa SE 2.3 km/h 2.6 km/h 87 % 7.62 mm
11:59 -17.1 °C -18.3 °C 34601.5 hPa Calm   5.1 km/h 86 % 12.7 mm
12:05 -17.1 °C -18.3 °C 34601.5 hPa SW 7.6 km/h 7.7 km/h 85 % 12.7 mm
12:11 -17.4 °C -18.6 °C 34591.4 hPa SSW 7.6 km/h 7.7 km/h 86 % 12.7 mm
12:17 -17.4 °C -18.4 °C 34591.4 hPa SSW 7.6 km/h 10.3 km/h 88 % 12.7 mm
12:23 -17.4 °C -18.4 °C 34591.4 hPa SW 7.6 km/h 10.3 km/h 88 % 12.7 mm
12:29 -17.4 °C -18.4 °C 34591.4 hPa SSW 7.6 km/h 12.9 km/h 88 % 12.7 mm
12:35 -17.6 °C -18.4 °C 34591.4 hPa SW 12.7 km/h 15.6 km/h 89 % 12.7 mm
12:41 -17.6 °C -18.3 °C 34591.4 hPa SSW 7.6 km/h 12.9 km/h 90 % 12.7 mm
12:47 -17.4 °C -18.3 °C 34591.4 hPa SSW 12.7 km/h 12.9 km/h 90 % 12.7 mm
12:53 -17.4 °C -18.3 °C 34591.4 hPa SSW 5.1 km/h 12.9 km/h 89 % 20.32 mm
12:59 -17.3 °C -18.2 °C 34591.4 hPa SSW 7.6 km/h 12.9 km/h 89 % 12.7 mm
13:05 -17.3 °C -18.1 °C 34591.4 hPa SSW 7.6 km/h 15.6 km/h 90 % 12.7 mm
13:11 -17.3 °C -18.1 °C 34591.4 hPa South 10.3 km/h 15.6 km/h 90 % 20.32 mm
13:17 -17.3 °C -18.1 °C 34591.4 hPa SSW 12.7 km/h 18.2 km/h 90 % 12.7 mm
13:23 -17.1 °C -17.9 °C 34577.8 hPa SSW 12.7 km/h 18.2 km/h 90 % 20.32 mm
13:29 -17.1 °C -17.9 °C 34577.8 hPa South 15.6 km/h 18.2 km/h 90 % 20.32 mm
13:35 -17.1 °C -17.9 °C 34577.8 hPa SW 12.7 km/h 18.2 km/h 90 % 12.7 mm
13:41 -17.1 °C -17.9 °C 34577.8 hPa SSW 15.6 km/h 18.2 km/h 90 % 20.32 mm
13:47 -17 °C -17.8 °C 34577.8 hPa SW 20.9 km/h 23.3 km/h 90 % 20.32 mm
13:53 -17 °C -17.8 °C 34567.7 hPa South 12.7 km/h 18.2 km/h 90 % 20.32 mm
13:59 -16.9 °C -17.6 °C 34567.7 hPa SW 7.6 km/h 15.6 km/h 91 % 25.4 mm
14:06 -16.8 °C -17.7 °C 34567.7 hPa SW 12.7 km/h 15.6 km/h 89 % 25.4 mm
14:12 -16.8 °C -17.7 °C 34567.7 hPa SSW 15.6 km/h 20.8 km/h 89 % 25.4 mm
14:17 -16.8 °C -17.6 °C 34567.7 hPa SSW 10.3 km/h 15.6 km/h 90 % 33.02 mm
14:24 -16.7 °C -17.6 °C 34554.1 hPa SSW 15.6 km/h 18.2 km/h 89 % 25.4 mm
14:30 -16.6 °C -17.5 °C 34554.1 hPa SSW 15.6 km/h 23.3 km/h 89 % 33.02 mm
14:36 -16.6 °C -17.6 °C 34554.1 hPa SSW 15.6 km/h 18.2 km/h 88 % 38.1 mm
14:42 -16.5 °C -17.5 °C 34567.7 hPa SW 15.6 km/h 15.6 km/h 88 % 33.02 mm
14:48 -16.3 °C -17.4 °C 34554.1 hPa SW 10.3 km/h 15.6 km/h 87 % 33.02 mm
14:54 -16.3 °C -17.4 °C 34554.1 hPa SSW 15.6 km/h 20.8 km/h 87 % 38.1 mm
15:00 -16.2 °C -17.4 °C 34554.1 hPa SW 10.3 km/h 18.2 km/h 86 % 33.02 mm
15:06 -16.2 °C -17.3 °C 34554.1 hPa SW 12.7 km/h 18.2 km/h 86 % 38.1 mm
15:12 -16.2 °C -17.5 °C 34554.1 hPa SSW 10.3 km/h 20.8 km/h 85 % 38.1 mm
15:18 -16.2 °C -17.5 °C 34554.1 hPa SW 15.6 km/h 23.3 km/h 85 % 38.1 mm
15:24 -16.1 °C -17.2 °C 34554.1 hPa WSW 15.6 km/h 18.2 km/h 87 % 38.1 mm
15:30 -16 °C -17.3 °C 34544 hPa SW 17.9 km/h 20.8 km/h 85 % 38.1 mm
15:36 -16.1 °C -17.4 °C 34544 hPa SW 12.7 km/h 18.2 km/h 84 % 38.1 mm
15:42 -16.1 °C -17.4 °C 34544 hPa SW 12.7 km/h 18.2 km/h 84 % 38.1 mm
15:48 -16 °C -17.4 °C 34544 hPa SW 17.9 km/h 23.3 km/h 83 % 38.1 mm
15:54 -16 °C -17.3 °C 34544 hPa SW 17.9 km/h 20.8 km/h 84 % 38.1 mm
16:00 -15.9 °C -17.3 °C 34544 hPa South 5.1 km/h 15.6 km/h 84 % 38.1 mm
16:06 -15.9 °C -17.2 °C 34533.8 hPa WSW 5.1 km/h 10.3 km/h 84 % 38.1 mm
16:12 -15.9 °C -17.3 °C 34533.8 hPa WNW 15.6 km/h 15.6 km/h 83 % 38.1 mm
16:18 -15.9 °C -17.4 °C 34533.8 hPa West 2.3 km/h 12.9 km/h 83 % 38.1 mm
16:24 -16 °C -17.4 °C 34533.8 hPa SW 12.7 km/h 20.8 km/h 83 % 33.02 mm
16:30 -15.9 °C -17.3 °C 34533.8 hPa WSW 10.3 km/h 15.6 km/h 84 % 33.02 mm
16:36 -16 °C -17.4 °C 34533.8 hPa SW 5.1 km/h 12.9 km/h 83 % 25.4 mm
16:42 -16.1 °C -17.5 °C 34533.8 hPa West 12.7 km/h 12.9 km/h 83 % 33.02 mm
16:48 -16 °C -17.6 °C 34533.8 hPa WSW 5.1 km/h 10.3 km/h 82 % 25.4 mm
16:54 -15.9 °C -17.6 °C 34533.8 hPa WSW 7.6 km/h 12.9 km/h 81 % 20.32 mm
17:00 -15.9 °C -17.6 °C 34533.8 hPa WSW 7.6 km/h 12.9 km/h 80 % 20.32 mm
17:06 -15.9 °C -17.7 °C 34533.8 hPa West 5.1 km/h 10.3 km/h 79 % 20.32 mm
17:12 -15.9 °C -17.7 °C 34533.8 hPa West 5.1 km/h 7.7 km/h 79 % 12.7 mm
17:18 -15.9 °C -17.7 °C 34533.8 hPa West 2.3 km/h 15.6 km/h 79 % 12.7 mm
17:24 -15.9 °C -17.9 °C 34533.8 hPa WSW 10.3 km/h 15.6 km/h 78 % 20.32 mm
17:30 -15.9 °C -17.9 °C 34533.8 hPa SW 7.6 km/h 7.7 km/h 78 % 12.7 mm
17:36 -16.1 °C -17.9 °C 34533.8 hPa Calm   5.1 km/h 79 % 12.7 mm
17:42 -16.2 °C -18.1 °C 34533.8 hPa SW 7.6 km/h 15.6 km/h 79 % 12.7 mm
17:48 -16.3 °C -18.1 °C 34533.8 hPa WSW 2.3 km/h 10.3 km/h 80 % 12.7 mm
17:54 -16.4 °C -18.2 °C 34533.8 hPa WSW 10.3 km/h 10.3 km/h 80 % 12.7 mm
18:00 -16.5 °C -18.1 °C 34533.8 hPa WSW 2.3 km/h 5.1 km/h 81 % 7.62 mm
18:06 -16.6 °C -18.1 °C 34533.8 hPa SW 5.1 km/h 7.7 km/h 82 % 7.62 mm
18:12 -16.6 °C -18.2 °C 34533.8 hPa SW 7.6 km/h 12.9 km/h 82 % 7.62 mm
18:18 -16.6 °C -18.2 °C 34520.3 hPa SW 7.6 km/h 7.7 km/h 82 % 7.62 mm
18:24 -16.7 °C -18.2 °C 34520.3 hPa SW 5.1 km/h 10.3 km/h 82 % 0 mm
18:30 -16.8 °C -18.3 °C 34520.3 hPa SSW 5.1 km/h 12.9 km/h 83 % 0 mm
18:36 -17.1 °C -18.3 °C 34510.1 hPa SSW 2.3 km/h 5.1 km/h 85 % 0 mm
18:42 -17.3 °C -18.3 °C 34510.1 hPa SW 5.1 km/h 7.7 km/h 87 % 0 mm
18:48 -17.4 °C -18.4 °C 34510.1 hPa SSW 5.1 km/h 7.7 km/h 88 % 0 mm
18:54 -17.5 °C -18.4 °C 34510.1 hPa SSW 2.3 km/h 5.1 km/h 89 % 0 mm
19:00 -17.6 °C -18.3 °C 34510.1 hPa SSW 5.1 km/h 5.1 km/h 90 % 0 mm
19:06 -17.6 °C -18.4 °C 34510.1 hPa SSW 5.1 km/h 5.1 km/h 90 % 0 mm
19:12 -17.5 °C -18.2 °C 34520.3 hPa SW 5.1 km/h 12.9 km/h 91 % 0 mm
19:18 -17.3 °C -18.2 °C 34520.3 hPa SW 12.7 km/h 12.9 km/h 89 % 0 mm
19:24 -17.2 °C -18.2 °C 34520.3 hPa SW 10.3 km/h 12.9 km/h 88 % 0 mm
19:30 -17.3 °C -18.3 °C 34510.1 hPa SSW 7.6 km/h 10.3 km/h 88 % 0 mm
19:36 -17.4 °C -18.3 °C 34520.3 hPa SSW 5.1 km/h 10.3 km/h 89 % 0 mm
19:42 -17.4 °C -18.3 °C 34520.3 hPa South 5.1 km/h 5.1 km/h 89 % 0 mm
19:48 -17.7 °C -18.4 °C 34510.1 hPa South 2.3 km/h 2.6 km/h 90 % 0 mm
19:54 -17.7 °C -18.5 °C 34510.1 hPa South 2.3 km/h 5.1 km/h 90 % 0 mm
20:00 -17.8 °C -18.5 °C 34510.1 hPa SSW 2.3 km/h 2.6 km/h 91 % 0 mm
20:06 -17.9 °C -18.6 °C 34510.1 hPa SSW 5.1 km/h 5.1 km/h 91 % 0 mm
20:12 -17.8 °C -18.4 °C 34510.1 hPa SW 7.6 km/h 7.7 km/h 92 % 0 mm
20:18 -17.8 °C -18.4 °C 34510.1 hPa SSW 7.6 km/h 10.3 km/h 92 % 0 mm
20:24 -17.7 °C -18.3 °C 34496.6 hPa SSW 5.1 km/h 12.9 km/h 92 % 0 mm
20:30 -17.7 °C -18.4 °C 34496.6 hPa SSW 5.1 km/h 7.7 km/h 91 % 0 mm
20:36 -17.8 °C -18.6 °C 34496.6 hPa SSW 2.3 km/h 10.3 km/h 91 % 0 mm
20:42 -17.8 °C -18.4 °C 34496.6 hPa SSW 5.1 km/h 7.7 km/h 92 % 0 mm
20:48 -17.8 °C -18.4 °C 34496.6 hPa SW 5.1 km/h 7.7 km/h 92 % 0 mm
20:54 -17.8 °C -18.4 °C 34496.6 hPa SSW 7.6 km/h 7.7 km/h 92 % 0 mm
21:00 -17.7 °C -18.3 °C 34496.6 hPa SSW 5.1 km/h 10.3 km/h 92 % 0 mm
21:06 -17.7 °C -18.4 °C 34486.4 hPa South 2.3 km/h 2.6 km/h 91 % 0 mm
21:12 -17.7 °C -18.3 °C 34486.4 hPa SSW 2.3 km/h 5.1 km/h 92 % 0 mm
21:18 -17.6 °C -18.3 °C 34486.4 hPa South 2.3 km/h 10.3 km/h 91 % 0 mm
21:24 -17.6 °C -18.3 °C 34486.4 hPa SSW 2.3 km/h 7.7 km/h 91 % 0 mm
21:30 -17.6 °C -18.3 °C 34486.4 hPa SSW 5.1 km/h 10.3 km/h 91 % 0 mm
21:36 -17.6 °C -18.3 °C 34476.3 hPa SSW 10.3 km/h 10.3 km/h 91 % 0 mm
21:42 -17.6 °C -18.3 °C 34476.3 hPa South 7.6 km/h 12.9 km/h 91 % 0 mm
21:48 -17.5 °C -18.2 °C 34476.3 hPa SSW 17.9 km/h 18.2 km/h 91 % 0 mm
21:54 -17.4 °C -18.3 °C 34462.7 hPa SSW 10.3 km/h 20.8 km/h 90 % 0 mm
22:00 -17.4 °C -18.3 °C 34462.7 hPa SSW 5.1 km/h 10.3 km/h 90 % 0 mm
22:06 -17.6 °C -18.3 °C 34462.7 hPa SSE 2.3 km/h 7.7 km/h 91 % 0 mm
22:12 -17.6 °C -18.3 °C 34452.6 hPa Calm   2.6 km/h 91 % 0 mm
22:20 -17.5 °C -18.2 °C 34452.6 hPa South 5.1 km/h 7.7 km/h 91 % 0 mm
22:26 -17.4 °C -18.2 °C 34442.4 hPa SSW 7.6 km/h 12.9 km/h 91 % 0 mm
22:32 -17.4 °C -18.2 °C 34442.4 hPa SW 17.9 km/h 18.2 km/h 90 % 0 mm
22:38 -17.3 °C -18.2 °C 34442.4 hPa SSW 15.6 km/h 20.8 km/h 89 % 0 mm
22:44 -17.3 °C -18.2 °C 34442.4 hPa SW 12.7 km/h 25.9 km/h 89 % 0 mm
22:50 -17.3 °C -18.3 °C 34442.4 hPa SW 15.6 km/h 23.3 km/h 88 % 0 mm
22:56 -17.3 °C -18.2 °C 34442.4 hPa SW 15.6 km/h 23.3 km/h 89 % 0 mm
23:02 -17.3 °C -18.2 °C 34442.4 hPa SW 12.7 km/h 18.2 km/h 89 % 0 mm
23:08 -17.3 °C -18.2 °C 34442.4 hPa SSW 12.7 km/h 15.6 km/h 89 % 0 mm
23:14 -17.3 °C -18.2 °C 34442.4 hPa SSW 7.6 km/h 18.2 km/h 89 % 0 mm
23:20 -17.3 °C -18.2 °C 34442.4 hPa SW 10.3 km/h 15.6 km/h 90 % 0 mm
23:26 -17.3 °C -18.2 °C 34428.8 hPa SSW 10.3 km/h 15.6 km/h 90 % 0 mm
23:32 -17.4 °C -18.1 °C 34428.8 hPa SSE 2.3 km/h 10.3 km/h 91 % 0 mm
23:39 -17.4 °C -18.2 °C 34418.7 hPa SSW 17.9 km/h 18.2 km/h 91 % 0 mm
23:45 -17.4 °C -18.1 °C 34418.7 hPa SSW 12.7 km/h 18.2 km/h 92 % 0 mm
23:51 -17.3 °C -18 °C 34418.7 hPa SW 15.6 km/h 25.9 km/h 92 % 0 mm
23:57 -17.4 °C -18.1 °C 34405.1 hPa SW 17.9 km/h 25.9 km/h 92 % 0 mm
Meteo18
Compliments of Weather Underground - 4 mb

Script developed by  Jim McMurry - jmcmurry@mwt.net Adapted for the template by  Wim van der Kuil - Leuven-Template.eu

You find our weather info also at:

European Weather Network

Weather Underground

Equipment we use:

Weather-station
Davis Vue

Weather-program
Meteobridge

Weather-server
Raspberry PI 2 B+

Provider
1 and 1

Davis Vue

Meteobridge

Raspberry PI 2 B+

1 and 1